Weather History for KCQX - June, 2014

Change the Weather History Date:

Wednesday, June 18, 2014

  Actual Average Record
Temperature  
Mean Temperature 74 °F -  
Max Temperature 84 °F 69 °F 84 °F (2014)
Min Temperature 64 °F 56 °F 48 °F (2015)
Cooling Degree Days 9    
Growing Degree Days 24 (Base 50)    
Moisture  
Dew Point 63 °F    
Average Humidity 81    
Maximum Humidity 100    
Minimum Humidity 46    
Precipitation  
Precipitation 0.00 in - - ()
Sea Level Pressure  
Sea Level Pressure 29.84 in    
Wind  
Wind Speed 8 mph (SW)    
Max Wind Speed 12 mph    
Max Gust Speed 23 mph    
Visibility 5 miles    
Events Fog , Rain , Thunderstorm    
Averages and records for this station are not official NWS values.
T = Trace of Precipitation, MM = Missing Value Source: NWS Daily Summary

Daily Weather History Graph

Daily Weather History Graph

Search for Another Location

Airport or City:

Trip Planner

Search our weather history database for the weather conditions in past years. The results will help you decide how hot, cold, wet, or windy it might be!

Date:

Astronomy

Jun. 18, 2014 Rise Set
Actual Time 5:05 AM EDT 8:17 PM EDT
Civil Twilight 4:30 AM EDT 8:51 PM EDT
Nautical Twilight 3:46 AM EDT 9:35 PM EDT
Astronomical Twilight 2:54 AM EDT 10:28 PM EDT
Moon No Moon Rise 11:29 AM EDT (6/18)
Length of Visible Light 16h 20m
Length of Day
15h 12m
Waning Gibbous, 63% of the Moon is Illuminated
Jun 18
Waning Gibbous
Jun 19
Last Quarter
Jun 27
New
Jul 5
First Quarter
Jul 12
Full

Hourly Weather History & Observations

Time (EDT) Temp. Heat Index Dew Point Humidity Pressure Visibility Wind Dir Wind Speed Gust Speed Precip Events Conditions
12:52 AM 64.9 °F - 64.0 °F 97% 29.93 in 0.5 mi SW 9.2 mph - N/A Fog Fog
1:35 AM 64.9 °F - 64.0 °F 97% 29.91 in 0.2 mi SSW 8.1 mph - N/A Fog Fog
1:52 AM 64.9 °F - 64.0 °F 97% 29.91 in 0.2 mi SSW 8.1 mph - N/A Fog Fog
2:49 AM 64.4 °F - 64.4 °F 100% 29.88 in 0.5 mi SSW 6.9 mph - N/A Fog Fog
2:52 AM 64.0 °F - 64.0 °F 100% 29.88 in 0.5 mi SSW 8.1 mph - N/A Fog Fog
3:37 AM 64.0 °F - 64.0 °F 100% 29.86 in 1.8 mi SSW 10.4 mph 16.1 mph N/A   Overcast
3:48 AM 64.4 °F - 64.4 °F 100% 29.85 in 2.0 mi SSW 9.2 mph - N/A   Overcast
3:52 AM 64.0 °F - 64.0 °F 100% 29.85 in 2.5 mi SSW 9.2 mph - N/A   Overcast
4:13 AM 64.9 °F - 64.0 °F 97% 29.83 in 3.0 mi SSW 10.4 mph - N/A   Overcast
4:24 AM 64.9 °F - 64.0 °F 97% 29.82 in 2.5 mi SSW 8.1 mph 16.1 mph N/A   Overcast
4:41 AM 64.9 °F - 64.0 °F 97% 29.82 in 2.5 mi SSW 9.2 mph - N/A Thunderstorm Overcast
4:52 AM 64.9 °F - 64.9 °F 100% 29.84 in 3.0 mi WSW 11.5 mph 18.4 mph N/A Thunderstorm Mostly Cloudy
5:08 AM 64.9 °F - 64.9 °F 100% 29.83 in 3.0 mi SW 10.4 mph 21.9 mph 0.00 in Rain Light Rain
5:20 AM 64.9 °F - 64.0 °F 97% 29.82 in 2.0 mi SW 8.1 mph 18.4 mph 0.00 in   Mostly Cloudy
5:34 AM 64.9 °F - 64.0 °F 97% 29.81 in 1.8 mi SW 8.1 mph 20.7 mph 0.00 in   Mostly Cloudy
6:52 AM 64.9 °F - 63.0 °F 93% 29.79 in 2.5 mi SSW 8.1 mph - N/A   Scattered Clouds
7:10 AM 64.9 °F - 64.0 °F 97% 29.79 in 3.0 mi SSW 10.4 mph 18.4 mph N/A   Partly Cloudy
7:52 AM 68.0 °F - 64.0 °F 87% 29.79 in 4.0 mi SW 9.2 mph 19.6 mph N/A   Clear
8:52 AM 69.1 °F - 64.0 °F 84% 29.79 in 5.0 mi SW 8.1 mph 18.4 mph N/A   Haze
9:52 AM 73.9 °F - 66.9 °F 79% 29.77 in 6.0 mi SW 8.1 mph 17.3 mph N/A   Haze
10:52 AM 79.0 °F - 69.1 °F 72% 29.76 in 7.0 mi Variable 5.8 mph - N/A   Clear
11:52 AM 82.0 °F 85.5 °F 69.1 °F 65% 29.77 in 9.0 mi WSW 8.1 mph - N/A   Mostly Cloudy
12:52 PM 84.0 °F 85.4 °F 64.0 °F 51% 29.78 in 10.0 mi WNW 9.2 mph 23.0 mph N/A   Clear
1:52 PM 82.9 °F 84.0 °F 63.0 °F 51% 29.81 in 10.0 mi WNW 9.2 mph 21.9 mph N/A   Clear
2:52 PM 82.0 °F 82.7 °F 61.0 °F 49% 29.83 in 10.0 mi NNW 9.2 mph 19.6 mph N/A   Clear
3:52 PM 82.9 °F 83.2 °F 60.1 °F 46% 29.83 in 10.0 mi NNW 10.4 mph 19.6 mph N/A   Clear
4:52 PM 82.0 °F 82.4 °F 60.1 °F 47% 29.83 in 10.0 mi Variable 6.9 mph - N/A   Clear
5:52 PM 81.0 °F 81.6 °F 60.1 °F 49% 29.85 in 10.0 mi Variable 4.6 mph 16.1 mph N/A   Clear
6:52 PM 78.1 °F - 59.0 °F 52% 29.87 in 10.0 mi Variable 4.6 mph 16.1 mph N/A   Clear
7:52 PM 75.0 °F - 59.0 °F 57% 29.88 in 10.0 mi Variable 3.5 mph - N/A   Clear
8:52 PM 70.0 °F - 61.0 °F 73% 29.90 in 10.0 mi SW 4.6 mph - N/A   Clear
9:52 PM 71.1 °F - 62.1 °F 73% 29.92 in 10.0 mi West 3.5 mph - N/A   Clear
10:52 PM 73.0 °F - 62.1 °F 68% 29.92 in 10.0 mi Calm Calm - N/A   Clear
11:52 PM 69.1 °F - 62.1 °F 78% 29.93 in 10.0 mi Calm Calm - N/A   Clear